Miscellaneous Local Product
Issued by NWS Hastings, NE

Home | Current Version | Previous Version | Graphics & Text | Print | Product List | Glossary On
Versions: 1 2 3 4 5 6 7 8 9 10 11 12 13 14 15 16 17 18 19 20 21 22 23 24 25 26 27 28 29 30 31 32 33 34 35 36 37 38 39 40 41 42 43 44 45 46 47 48 49 50
000
AXUS43 KGID 260202
MISGRI

GID CWA HOURLY WEATHER ROUNDUP
NATIONAL WEATHER SERVICE HASTINGS NE
900 PM CDT SAT APR 25 2015

NOTE: "FAIR" INDICATES FEW OR NO CLOUDS BELOW 12,000 FEET WITH NO
SIGNIFICANT WEATHER AND/OR OBSTRUCTIONS TO VISIBILITY.

...SOUTH CENTRAL NEBRASKA...

CITY           SKY/WX    TMP DP  RH WIND       PRES   REMARKS
GRAND ISLAND   CLOUDY    49  45  86 E13       29.83R
HASTINGS       CLOUDY    49  45  86 NE15      29.82R
KEARNEY        CLOUDY    48  45  87 NE14      29.82R
ORD            CLOUDY    53  45  74 E9        29.81R
YORK           CLOUDY    48  46  93 NE13      29.83R
AURORA         CLOUDY    49  48  95 E15       29.83R
LEXINGTON      CLOUDY    51  47  87 E12       29.80R
HOLDREGE       CLOUDY    49  46  92 NE15      29.80R
HEBRON         CLOUDY    50  46  86 E9G17     29.81R

...NEBRASKA PANHANDLE...

CITY           SKY/WX    TMP DP  RH WIND       PRES   REMARKS
CHADRON        CLOUDY    54  47  77 E8        29.76R
ALLIANCE       CLOUDY    52  47  83 S12       29.76R
SCOTTSBLUFF    LGT RAIN  55  45  68 SE3       29.76R
SIDNEY         CLOUDY    51  45  79 N16       29.78R

...WESTERN AND NORTH CENTRAL NEBRASKA...

CITY           SKY/WX    TMP DP  RH WIND       PRES   REMARKS
VALENTINE      CLOUDY    54  45  71 E13       29.83R
AINSWORTH      CLOUDY    54  46  73 E10       29.83R
ONEILL         MOCLDY    54  47  77 E6        29.83R
BROKEN BOW     CLOUDY    52  46  80 E9        29.81R
IMPERIAL       MOCLDY    57  49  74 E15       29.75R
NORTH PLATTE   NOT AVBL
MCCOOK         PTCLDY    56  48  74 E14       29.75R

...EASTERN NEBRASKA...

CITY           SKY/WX    TMP DP  RH WIND       PRES   REMARKS
NORFOLK        CLOUDY    53  45  74 E8        29.85R
SO SIOUX CITY  CLOUDY    55  40  56 E10       29.87R
TEKAMAH        CLOUDY    52  45  77 E10       29.85R
COLUMBUS       CLOUDY    50  43  76 E9        29.85R
ALBION         CLEAR     49  42  78 E8        29.84R
OMAHA EPPLEY   CLOUDY    51  45  79 NE8       29.84R
OFFUTT AFB     CLOUDY    51  45  82 NE9       29.82S
MILLARD        CLOUDY    52  45  76 E7        29.83S
LINCOLN        CLOUDY    51  45  79 E15       29.84R
NEBRASKA CITY  CLOUDY    49  46  89 NE12      29.81R
BEATRICE       CLOUDY    49  45  86 NE14G20   29.82R
FALLS CITY     CLOUDY    49  45  86 NE10      29.79R

...NORTHERN KANSAS...

CITY           SKY/WX    TMP DP  RH WIND       PRES   REMARKS
GOODLAND       CLEAR     58  46  64 E14       29.72R
HILL CITY      MOCLDY    55  50  83 E15       29.76R
NORTON         CLOUDY    54  46  76 NE12      29.76R
PHILLIPSBURG   CLOUDY    55  50  82 NE14      29.78R
SMITH CENTER   CLOUDY    50  46  87 NE10      29.79R
HAYS           PTCLDY    55  46  71 E12       29.75R
RUSSELL        CLOUDY    54  51  90 NE15      29.74R
CONCORDIA      CLOUDY    50  47  89 NE13      29.79R
SALINA         CLOUDY    56  49  77 NE12      29.77R
TOPEKA         CLOUDY    51  47  86 N14       29.78R



USA.gov is the U.S. government's official web portal to all federal, state and local government web resources and services.